Terminal Aerodrome Forecast
Issued by NWS

Home | Current Version | Previous Version | Text Only | Print | Product List | Glossary On
Versions: 1 2 3 4 5 6 7 8 9 10 11 12 13 14 15 16 17 18 19 20 21 22 23 24 25 26 27 28 29 30 31 32 33 34 35 36 37 38
000
FTUS44 KHGX 201720
TAFSGR
TAF
KSGR 201720Z 2018/2118 19010KT P6SM VCTS SCT025CB BKN040
     FM210100 16006KT P6SM FEW250
     FM210900 VRB03KT P6SM SCT015
     FM211500 17007KT P6SM VCSH SCT035=

USA.gov is the U.S. government's official web portal to all federal, state and local government web resources and services.